Find Starlink 34070

NORAD ID: 63913 Int'l Des: 2025-095 Owner: SPXS Country: US Constellation: starlink operational
LEOCIRCULAR

Live Position

Loading 3D Globe...

About Starlink 34070

Description loading...

Upcoming Passes

Passes for default location (London). Set your location on the main map for personalized predictions.

Altitude History

Loading altitude history...

Two-Line Element Set

1 63913U 25095Z 26105.99636278 .00007987 00000-0 29928-3 0 9991
2 63913 43.0139 325.4976 0003744 255.6123 104.4314 15.27597629 53482
Epoch: Apr 15, 2026 • Age: 14 hours

Current Status

Altitude 483.0 km
Velocity 7.63 km/s
Sub-Earth Point 8.30°N, 84.96°W
Launch Date May 10, 2025
Age 0.9 years
Type internet

Technical Details

Classification Payload
Mass 575.00 kg
Dry Mass 530.00 kg
Total Mass 575.00 kg
Length 0.30 m
Diameter 4.10 m
Span 29.00 m
Shape Box + pan
Manufacturer SPXS
Bus Type Starlink V2MO
Phase Status In Orbit
Owner/State SPXS/US

Most Searched